Simultaneous Nadir Overpasses (SNOs) Predictions

Prediction of SNOs between METOP-B and NPP Satellite Orbit:

Table of predicted SNOs for the next 14.0 days since TLE Epoch: 2/22/2023
Index Date (METOP-B) Time (METOP-B) Lat,Lon (METOP-B) SZA (METOP-B ) Date (NPP) Time (NPP) Lat,Lon (NPP) SZA (NPP ) Distance(km) Time Diff (sec)
1 03/07/2023 22:59:24 73.63,-171.10 78.83 03/07/2023 22:58:18 73.61,-174.20 78.99 97.22 66
2 03/07/2023 23:50:08 -73.54, -3.98 101.27 03/07/2023 23:49:01 -73.55, -6.74 101.09 87.07 67
3 03/08/2023 00:40:51 73.31, 162.83 78.52 03/08/2023 00:39:41 73.32, 161.10 78.64 55.34 70
4 03/08/2023 01:31:35 -73.22, -30.04 101.58 03/08/2023 01:30:23 -73.21, -31.35 101.50 41.86 72
5 03/08/2023 02:22:18 73.03, 136.89 78.25 03/08/2023 02:21:05 73.03, 136.37 78.29 16.94 73



Historial Predications of SNOs between METOP-B and NPP
